sat.trackr.live / text

‹ back to catalog

STARLINK-35531

NORAD 66112 · 2025-236AC

PAYLOAD ACTIVE UNKNOWN

§ Identity

Operator
Country
US
Launch date
2025-10-19
Launch site
AFWTR
Launch vehicle
Mass (kg)
RCS (m²)

Purposes: comms

External: N2YO · Heavens-Above · Gunter

§ Orbital elements

Epoch: 2026-09-20T07:24:18.059904Z

Period
93.85 min
Inclination
53.1578°
Eccentricity
0.0001264
Mean motion
15.34393227 rev/d
Perigee alt
461.9 km
Apogee alt
463.6 km
Semi-major
6,840.9 km
B*
6.7302e-4
RAAN
278.3238°
Arg perigee
77.4127°
Mean anomaly
282.7017°
Rev number
5,276

§ Raw data

STARLINK-355311 66112U 25236AC  26263.30854236  .00022426  00000+0  67302-3 0  99902 66112  53.1578 278.3238 0001264  77.4127 282.7017 15.34393227 52767

JSON: /api/v1/satellites/66112 · /tle

For live sub-satellite position, see the globe view (requires WebGL).

§ Visibility from observer

Set your observer location to see the next 7 days of passes ≥ 10°. The values pass through the URL so the page stays shareable.

No JS? Fill the form by hand. The geolocation button needs JavaScript.